Greenville, MS

4:09 PM CDT on May 28, 2017 (GMT -0500)
Mid Delta Regional

Weather History for KGLH - July, 2013

Change the Weather History Date:

Friday, July 5, 2013

  Actual Average Record
Temperature  
Mean Temperature 79 °F 82 °F  
Max Temperature 92 °F 92 °F 101 °F (1977)
Min Temperature 65 °F 72 °F 58 °F (1961)
Degree Days  
Heating Degree Days 0 0  
Month to date heating degree days 0 0  
Since 1 June heating degree days 0 0  
Since 1 July heating degree days 0 0  
Cooling Degree Days 14 17  
Month to date cooling degree days 58 83  
Year to date cooling degree days 800 825  
Since 1 June cooling degree days 517 503  
Growing Degree Days 28 (Base 50)    
Moisture  
Dew Point 65 °F    
Average Humidity 62    
Maximum Humidity 87    
Minimum Humidity 37    
Precipitation  
Precipitation 0.00 in 0.15 in 3.06 in (1995)
Month to date precipitation 0.00 0.76  
Year to date precipitation 26.21 29.06  
Sea Level Pressure  
Sea Level Pressure 30.01 in    
Wind  
Wind Speed 4 mph (ESE)    
Max Wind Speed 29 mph    
Max Gust Speed 37 mph    
Visibility 10 miles    
Events Thunderstorm    
T = Trace of Precipitation, MM = Missing Value Source: NWS Daily Summary

Daily Weather History Graph

Daily Weather History Graph

Search for Another Location

Airport or City:

Trip Planner

Search our weather history database for the weather conditions in past years. The results will help you decide how hot, cold, wet, or windy it might be!

Date:

Astronomy

Jul. 05, 2013 Rise Set
Actual Time 5:59 AM CDT 8:17 PM CDT
Civil Twilight 5:30 AM CDT 8:46 PM CDT
Nautical Twilight 4:55 AM CDT 9:21 PM CDT
Astronomical Twilight 4:17 AM CDT 9:59 PM CDT
Moon 3:56 AM CDT (7/5) 6:14 PM CDT (7/5)
Length of Visible Light 15h 15m
Length of Day
14h 17m
Waning Crescent, 6% of the Moon is Illuminated
Jul 5
Waning Crescent
Jul 8
New
Jul 15
First Quarter
Jul 22
Full
Jul 29
Last Quarter

Hourly Weather History & Observations

Time (CDT) Temp. Heat Index Dew Point Humidity Pressure Visibility Wind Dir Wind Speed Gust Speed Precip Events Conditions
12:53 AM 69.1 °F - 62.1 °F 78% 30.00 in 10.0 mi Calm Calm - N/A   Clear
1:53 AM 70.0 °F - 63.0 °F 78% 30.01 in 10.0 mi Calm Calm - N/A   Partly Cloudy
2:53 AM 69.1 °F - 63.0 °F 81% 29.99 in 10.0 mi Calm Calm - N/A   Clear
3:53 AM 69.1 °F - 63.0 °F 81% 30.00 in 10.0 mi SW 3.5 mph - N/A   Clear
4:53 AM 66.9 °F - 63.0 °F 87% 30.00 in 10.0 mi Calm Calm - N/A   Clear
5:53 AM 66.0 °F - 62.1 °F 87% 30.01 in 10.0 mi ESE 3.5 mph - N/A   Clear
6:53 AM 68.0 °F - 63.0 °F 84% 30.02 in 10.0 mi Calm Calm - N/A   Clear
7:53 AM 77.0 °F - 63.0 °F 62% 30.03 in 10.0 mi Calm Calm - N/A   Clear
8:53 AM 81.0 °F 82.5 °F 64.0 °F 56% 30.04 in 10.0 mi NNE 3.5 mph - N/A   Clear
9:53 AM 84.0 °F 84.4 °F 61.0 °F 46% 30.04 in 10.0 mi North 4.6 mph - N/A   Clear
10:53 AM 87.1 °F 87.8 °F 63.0 °F 44% 30.05 in 10.0 mi North 3.5 mph - N/A   Clear
11:53 AM 88.0 °F 87.6 °F 60.1 °F 39% 30.04 in 10.0 mi ENE 5.8 mph - N/A   Clear
12:53 PM 90.0 °F 89.1 °F 59.0 °F 35% 30.04 in 10.0 mi Calm Calm - N/A   Clear
1:53 PM 90.0 °F 90.3 °F 62.1 °F 39% 30.01 in 10.0 mi Calm Calm - N/A   Partly Cloudy
2:53 PM 91.9 °F 92.5 °F 62.1 °F 37% 30.00 in 10.0 mi Variable 3.5 mph - N/A   Scattered Clouds
3:53 PM 87.1 °F 91.3 °F 69.1 °F 55% 30.00 in 10.0 mi SE 15.0 mph 21.9 mph N/A   Mostly Cloudy
4:11 PM 78.8 °F - 64.4 °F 61% 29.99 in 7.0 mi SE 21.9 mph 36.8 mph N/A Thunderstorm Mostly Cloudy
4:53 PM 82.9 °F 84.4 °F 64.0 °F 53% 29.98 in 10.0 mi East 3.5 mph - N/A   Scattered Clouds
5:53 PM 84.9 °F 86.1 °F 64.0 °F 49% 29.98 in 10.0 mi ESE 11.5 mph - N/A   Clear
6:53 PM 82.0 °F 85.5 °F 69.1 °F 65% 29.98 in 10.0 mi SSE 8.1 mph - N/A   Clear
7:53 PM 81.0 °F 84.4 °F 70.0 °F 69% 29.98 in 10.0 mi ESE 5.8 mph - N/A   Partly Cloudy
8:53 PM 78.1 °F - 71.1 °F 79% 29.99 in 10.0 mi East 4.6 mph - N/A   Clear
9:53 PM 75.9 °F - 71.1 °F 85% 30.00 in 10.0 mi ESE 5.8 mph - N/A   Clear
10:53 PM 75.0 °F - 71.1 °F 87% 30.01 in 10.0 mi East 3.5 mph - N/A   Clear
11:53 PM 75.0 °F - 70.0 °F 84% 30.02 in 10.0 mi SSE 9.2 mph - N/A   Clear